AirNav   Air Wisconsin pilot careers
 
 835 users online  

XA31 Lewis Ranch Airport
Leakey, Texas, USA

GOING TO LEAKEY?


FAA INFORMATION EFFECTIVE 08 NOVEMBER 2018

Location

FAA Identifier: XA31
Lat/Long: 29-49-00.7920N / 099-47-16.2210W
29-49.013200N / 099-47.270350W
29.8168867 / -99.7878392
(estimated)
Elevation: 1730 ft. / 527 m (estimated)
Variation: 08E (1985)
From city: 5 miles N of LEAKEY, TX
Time zone: UTC -6 (UTC -5 during Daylight Saving Time)
Zip code: 78873

Airport Operations

Airport use: Private use. Permission required prior to landing
Activation date: 05/1949
Control tower: no
ARTCC: HOUSTON CENTER
FSS: SAN ANGELO FLIGHT SERVICE STATION
Attendance: UNATNDD
Wind indicator: yes
Segmented circle: yes
SEGMENTED CIRCLE - ROCKS PAINTED WHITE.

Nearby radio navigation aids

VOR radial/distance  VOR name  Freq  Var
RSGr104/29.2ROCKSPRINGS VORTAC111.2010E
CSIr250/30.5CENTER POINT VORTAC117.5008E

 
NDB name  Hdg/Dist  Freq  Var  ID
UVALDE348/38.528107EUVA ..- ...- .-

Airport Services

Parking: tiedowns
Airframe service: NONE
Powerplant service: NONE

Runway Information

Runway 11/29

Dimensions: 3150 x 200 ft. / 960 x 61 m
RY 11/29 ONLY CENTER 70 FT REGULARLY MAINTAINED.
Surface: turf, in fair condition
RY 11/29 NW 300 FT OF RY ROUGH.
Runway edge markings: 11/29 EDGES DEFINED WITH WHITE HALF BARRELS.
RUNWAY 11  RUNWAY 29
Traffic pattern: leftleft
Obstructions: 12 ft. berm, 80 ft. from runway, 6:1 slope to clear15 ft. road, 120 ft. right of centerline

Airport Ownership and Management from official FAA records

Ownership: Privately-owned
Owner: EUNICE D LEWIS
119 LARAMIE DRIVE
SAN ANTONIO, TX 78209
Phone 210-828-0402
Manager: HARDY C. LEWIS
P.O.BOX 1399
LEAKEY, TX 78873
Phone 830-232-5331
USE THIS TELEPHONE NUMBER FOR EMERGENCY SERVICE.

Airport Operational Statistics

Aircraft operations: 25/year *
100% transient general aviation
* for 12-month period ending 14 July 2003

Additional Remarks

ARPT SURROUNDED BY 500' HILLS 1/2 TO 3/4 MILE IN EACH DIRECTION.

Instrument Procedures

There are no published instrument procedures at XA31.

Some nearby airports with instrument procedures:

KECU - Edwards County Airport (22 nm W)
KUVA - Garner Field Airport (36 nm S)
KERV - Kerrville Municipal Airport/Louis Schreiner Field (38 nm E)
KJCT - Kimble County Airport (42 nm N)
KHDO - South Texas Regional Airport at Hondo (42 nm SE)
 
Loc | Ops | Rwys | IFR | FBO | Links
Com | Nav | Svcs | Stats | Notes


 
Area around XA31 (Lewis Ranch Airport)
 
Road maps at: MapQuest Bing Google
 
Aerial photo
No photo
 
Sectional chart

 
Airport distance calculator
Flying to Lewis Ranch Airport? Find the distance to fly.

From to XA31

Sunrise and sunset
Times for 17-Nov-2018
 Local
(UTC-6)
 Zulu
(UTC)
Morning civil twilight06:4112:41
Sunrise07:0713:07
Sunset17:4223:42
Evening civil twilight18:0700:07

Current date and time
Zulu (UTC)  18-Nov-2018 00:46:33
Local (UTC-6)  17-Nov-2018 18:46:33
 
METAR
KECU 
22nm W 
180035Z AUTO 17007KT 10SM CLR 15/11 A3010 RMK AO2
KUVA 
36nm S 
180035Z AUTO 11004KT 10SM CLR 16/14 A3006 RMK AO2 T01620136
KERV 
38nm E 
180035Z AUTO 15005KT 10SM CLR 15/12 A3007 RMK AO2 T01490123
KJCT 
41nm N 
172351Z AUTO 17005KT 10SM CLR 18/12 A3004 RMK AO2 SLP155 T01830117 10228 20183 53009
KHDO 
42nm SE 
172351Z AUTO 14007KT 10SM BKN033 OVC055 21/15 A3005 RMK AO2 SLP169 T02060150 10239 20206 53003
TAF
KJCT 
41nm N 
171729Z 1718/1818 20011G17KT P6SM SCT250 FM180000 19006KT P6SM SCT200 FM180300 VRB06KT P6SM OVC025 FM181000 36010KT P6SM OVC015
NOTAMs
Click for the latest NOTAMs
NOTAMs are issued by the DoD/FAA and will open in a separate window not controlled by AirNav.

 

 
 

Would you like to see your business listed on this page?

 If your business provides an interesting product or service to pilots, flight crews, aircraft, or users of the Lewis Ranch Airport, you should consider listing it here.  To start the listing process, click on the button below
 
Add a business
 

Other Pages about Lewis Ranch Airport

Update a link
 
Copyright © AirNav, LLC. All rights reserved. Privacy Policy  Contact